Simultaneous Nadir Overpasses (SNOs) Predictions

Prediction of SNOs between LANDSAT-8 and METOP-A Satellite Orbit:

Table of predicted SNOs for the next 14.0 days since TLE Epoch: 9/11/2021
Index Date (LANDSAT-8) Time (LANDSAT-8) Lat,Lon (LANDSAT-8) SZA (LANDSAT-8 ) Date (METOP-A) Time (METOP-A) Lat,Lon (METOP-A) SZA (METOP-A ) Distance(km) Time Diff (sec)
1 09/12/2021 04:38:29 81.32, 153.75 79.69 09/12/2021 04:38:20 81.33, 153.94 79.71 3.19 9
2 09/12/2021 05:27:56 -81.32, -38.69 100.31 09/12/2021 05:29:01 -81.33, -38.82 100.28 2.58 65
3 09/15/2021 00:12:44 81.33,-139.54 80.83 09/15/2021 00:12:40 81.32,-139.60 80.82 1.77 4
4 09/15/2021 01:02:12 -81.31, 27.66 99.22 09/15/2021 01:03:21 -81.32, 27.67 99.18 1.40 69
5 09/17/2021 18:57:33 -81.34, 119.41 98.06 09/17/2021 18:56:20 -81.33, 119.28 98.12 2.84 73
6 09/17/2021 19:47:00 81.33, -73.26 81.92 09/17/2021 19:47:00 81.32, -73.16 81.92 1.89 0
7 09/17/2021 20:36:28 -81.30, 93.96 98.13 09/17/2021 20:37:41 -81.32, 94.14 98.07 3.42 73
8 09/20/2021 14:31:48 -81.33,-174.33 96.97 09/20/2021 14:30:39 -81.32,-174.27 97.00 1.55 69
9 09/20/2021 15:21:15 81.32, -7.02 83.00 09/20/2021 15:21:20 81.33, -7.12 83.00 2.26 5
10 09/23/2021 10:06:04 -81.32,-108.11 95.89 09/23/2021 10:05:00 -81.33,-108.22 95.92 2.28 64



Historial Predications of SNOs between LANDSAT-8 and METOP-A
